Mazar-I-Sharif, Afghanistan

4:17 PM +0430 on April 19, 2018 (GMT +0430)
Mazar

Weather History for OAMS - March, 2014

Change the Weather History Date:

Saturday, March 29, 2014

  Actual Average Record
Temperature  
Mean Temperature 60 °F -  
Max Temperature 77 °F 76 °F - ()
Min Temperature 43 °F 52 °F - ()
Degree Days  
Heating Degree Days 5    
Growing Degree Days 10 (Base 50)    
Moisture  
Dew Point 43 °F    
Average Humidity 48    
Maximum Humidity 87    
Minimum Humidity 18    
Precipitation  
Precipitation 0.00 in 0.04 in - ()
Sea Level Pressure  
Sea Level Pressure 29.95 in    
Wind  
Wind Speed 5 mph ()    
Max Wind Speed 18 mph    
Max Gust Speed -    
Visibility 9.3 miles    
Events Rain    
T = Trace of Precipitation, MM = Missing Value Source: Averaged Metar Reports

Daily Weather History Graph

Daily Weather History Graph

Search for Another Location

Airport or City:

Trip Planner

Search our weather history database for the weather conditions in past years. The results will help you decide how hot, cold, wet, or windy it might be!

Date:

Astronomy

Mar. 29, 2014 Rise Set
Actual Time 5:52 AM +0430 6:20 PM +0430
Civil Twilight 5:26 AM +0430 6:46 PM +0430
Nautical Twilight 4:55 AM +0430 7:17 PM +0430
Astronomical Twilight 4:24 AM +0430 7:48 PM +0430
Moon 4:41 AM +0430 (3/29) 4:57 PM +0430 (3/29)
Length of Visible Light 13h 20m
Length of Day
12h 28m
Waning Crescent, 3% of the Moon is Illuminated
Mar 29
Waning Crescent
Mar 30
New
Apr 7
First Quarter
Apr 15
Full
Apr 22
Last Quarter

Hourly Weather History & Observations

Time (+0430) Temp. Dew Point Humidity Pressure Visibility Wind Dir Wind Speed Gust Speed Precip Events Conditions
12:20 AM 53.6 °F 41.0 °F 62% 29.95 in 6.2 mi South 2.3 mph - N/A   Unknown
12:30 AM 53 °F 41 °F 52% 29.95 in 19 mi South 2.2 mph - -  
1:20 AM 51.8 °F 39.2 °F 62% 29.95 in 6.2 mi West 2.3 mph - N/A   Unknown
1:30 AM 51 °F 39 °F 54% 29.96 in 19 mi West 2.2 mph - -  
2:20 AM 48.2 °F 42.8 °F 82% 29.92 in 6.2 mi Variable 1.2 mph - N/A   Unknown
2:30 AM 49 °F 42 °F 71% 29.96 in 19 mi 2.2 mph - -  
3:20 AM 48.2 °F 42.8 °F 82% 29.92 in 6.2 mi ESE 2.3 mph - N/A   Clear
3:30 AM 49 °F 42 °F 69% 29.95 in 19 mi ESE 2.2 mph - -  
4:20 AM 44.6 °F 41.0 °F 87% 29.92 in 6.2 mi Variable 2.3 mph - N/A   Clear
4:30 AM 45 °F 40 °F 78%  in 19 mi 2.2 mph - -  
5:20 AM 44.6 °F 39.2 °F 81% 29.95 in 6.2 mi North 1.2 mph - N/A   Scattered Clouds
7:20 AM 50.0 °F 42.8 °F 76% 29.95 in 6.2 mi SW 2.3 mph - N/A   Mostly Cloudy
7:30 AM 50 °F 42 °F 66% 29.98 in 12 mi SW 2.2 mph - -   Scattered Clouds
8:20 AM 55.4 °F 44.6 °F 67% 29.98 in 6.2 mi Variable 1.2 mph - N/A   Scattered Clouds
8:30 AM 55 °F 44 °F 56% 29.99 in 12 mi 2.2 mph - -   Scattered Clouds
9:20 AM 59.0 °F 46.4 °F 63% 30.01 in 6.2 mi NNE 3.5 mph - N/A   Scattered Clouds
9:30 AM 60 °F 46 °F 50% 29.99 in 9 mi NNE 4.5 mph - -   Scattered Clouds
10:20 AM 64.4 °F 44.6 °F 49% 29.98 in 6.2 mi ENE 5.8 mph - N/A   Scattered Clouds
10:30 AM 64 °F 45 °F 39% 29.96 in 9 mi ENE 6.7 mph - -   Scattered Clouds
11:20 AM 68.0 °F 46.4 °F 46% 29.98 in 6.2 mi ENE 9.2 mph - N/A   Partly Cloudy
11:30 AM 69 °F 46 °F 32% 29.94 in 9 mi ENE 8.9 mph - -   Scattered Clouds
12:20 PM 73.4 °F 44.6 °F 36% 29.95 in 6.2 mi ENE 12.7 mph - N/A   Scattered Clouds
1:20 PM 75.2 °F 42.8 °F 31% 29.92 in 6.2 mi ENE 15.0 mph - N/A   Scattered Clouds
1:30 PM 74 °F 44 °F 23% 29.88 in 16 mi ENE 15.7 mph - -   Scattered Clouds
2:20 PM 75.2 °F 42.8 °F 31% 29.89 in 6.2 mi ENE 17.3 mph - N/A   Partly Cloudy
2:30 PM 76 °F 42 °F 20% 29.85 in 16 mi ENE 17.9 mph - -   Scattered Clouds
3:20 PM 75.2 °F 41.0 °F 29% 29.89 in 6.2 mi East 17.3 mph - N/A   Scattered Clouds
3:30 PM 76 °F 40 °F 18% 29.85 in 16 mi East 17.9 mph - -   Scattered Clouds
4:20 PM 73.4 °F 42.8 °F 33% 29.89 in 6.2 mi ENE 12.7 mph - N/A   Mostly Cloudy
4:30 PM 74 °F 42 °F 21% 29.86 in 9 mi ENE 13.4 mph - -   Partly Cloudy
5:20 PM 68.0 °F 48.2 °F 49% 29.95 in 6.2 mi NNW 5.8 mph - N/A   Scattered Clouds
5:30 PM 69 °F 48 °F 36% 29.91 in 9 mi NNW 6.7 mph - - Rain Light Rain Showers
6:20 PM 71.6 °F 42.8 °F 35% 29.95 in 6.2 mi ESE 5.8 mph - N/A   Mostly Cloudy
6:30 PM 71 °F 43 °F 26% 29.90 in 9 mi ESE 6.7 mph - -   Partly Cloudy
7:20 PM 68.0 °F 48.2 °F 49% 29.95 in 6.2 mi SSE 4.6 mph - N/A   Mostly Cloudy
7:30 PM 68 °F 47 °F 36% 29.91 in 9 mi SSE 4.5 mph - -   Scattered Clouds
8:20 PM 68.0 °F 42.8 °F 40% 29.95 in 6.2 mi SE 4.6 mph - N/A   Mostly Cloudy
8:30 PM 68 °F 42 °F 27% 29.93 in 9 mi SE 4.5 mph - -   Scattered Clouds
9:20 PM 62.6 °F 46.4 °F 55% 30.01 in 6.2 mi North 9.2 mph - N/A   Scattered Clouds
9:30 PM 62 °F 47 °F 47% 29.99 in 9 mi North 8.9 mph - -   Scattered Clouds
10:20 PM 66.2 °F 42.8 °F 43% 30.04 in 6.2 mi ESE 9.2 mph - N/A   Scattered Clouds
10:30 PM 66 °F 43 °F 32% 30.01 in 9 mi ESE 8.9 mph - -   Partly Cloudy
11:20 PM 64.4 °F 41.0 °F 42% 30.04 in 6.2 mi East 8.1 mph - N/A   Unknown
11:30 PM 64 °F 40 °F 30% 30.01 in 9 mi East 8.9 mph - -